User: anonymous   Login
Location: Caltech
(34.1382°N, 118.1253°W)
Time: 10:45:22
(UTC-07:00)
Language:

CZ-4B DEB - Orbit

View from above orbital plane
View from above orbital plane
View from above satellite
View from above satellite

Ground track
Ground track

The orbit data is extracted from the following two-line orbital elements,

1 27433U 02024D   15242.84924867  .00000142  00000-0  10158-3 0  9994
2 27433 098.8811 207.9169 0015716 102.6613 257.6316 14.11942063684547
Epoch (UTC): 30 August 2015 20:22:55
Eccentricity: 0.0015716
inclination: 98.8811°
perigee height: 841 km
apogee height: 864 km
right ascension of ascending node: 207.9169°
argument of perigee: 102.6613°
revolutions per day: 14.11942063
mean anomaly at epoch: 257.6316°
orbit number at epoch: 68454

The dashed part of the orbit path shows where the satellite is in the earth's shadow,  

DLR